Location: *
(46.0770°N, 1.6444°E)
Time: 14:10:53
(UTC+00:00)

Cosmos 1544 - Pass Details

Date: 16 September 2019
Orbit: 475 x 491 km, 82.5° (Epoch: 20 October)

Event Time Altitude Azimuth Distance (km) Brightness Sun altitude
Rises 18:29:05 0° 154° (SSE) 2,513 6.3 -5.2°
Reaches altitude 10° 18:31:32 10° 138° (SE) 1,642 5.3 -5.6°
Maximum altitude 18:34:14 20° 89° (E) 1,143 4.4 -6.1°
Drops below altitude 10° 18:36:57 10° 40° (NE) 1,656 5.5 -6.6°
Sets 18:39:25 0° 23° (NNE) 2,543 6.6 -7.0°
